Regional Weather Roundup
Issued by NWS Newport/Morehead, NC

Current Version | Previous Version | Text Only | Print | Product List | Glossary Off
Versions: 1 2 3 4 5 6 7 8 9 10 11 12 13 14 15 16 17 18 19 20 21 22 23 24 25 26 27 28 29 30 31 32 33 34 35 36 37 38 39 40 41 42 43 44 45 46 47 48 49 50
000 ASUS42 KMHX 310925 RWRMHX WEATHER ROUNDUP FOR EASTERN NORTH CAROLINA NATIONAL WEATHER SERVICE NEWPORT/MOREHEAD CITY NC 500 AM EDT MON AUG 31 2015 NOTE: "FAIR" INDICATES FEW OR NO CLOUDS BELOW 12,000 FEET WITH NO SIGNIFICANT WEATHER AND/OR OBSTRUCTIONS TO VISIBILITY NCZ015>017-031-032-045>047-102-103-311000- NORTH COAST CITY SKY/WX TMP DP RH WIND PRES REMARKS EDENTON CLOUDY 72 68 87 CALM 30.11F ELIZABETH CITY CLOUDY 74 69 85 SW3 30.11F KITTY HAWK CLOUDY 75 71 85 SW3 30.11R MANTEO CLOUDY 75 71 86 W5 30.12S $$ NCZ045>047-081-094-103-104-311000- CENTRAL COAST CITY SKY/WX TMP DP RH WIND PRES REMARKS FRISCO CLOUDY 73 71 93 E3 30.10F SWANQUARTER NOT AVBL $$ NCZ095-097-098-100-101-311000- SOUTHERN COAST CITY SKY/WX TMP DP RH WIND PRES REMARKS BEAUFORT CLOUDY 74 72 93 CALM 30.10F CEDAR ISLAND NOT AVBL JACKSONVILLE CLOUDY 75 70 84 E7 30.08F PINEY ISLAND CLOUDY N/A N/A N/A CALM 30.11R WILMINGTON CLOUDY 77 74 90 SE3 30.07F $$ NCZ011>013-027>030-043-044-078>080-089-090>093-098-311000- COASTAL PLAIN CITY SKY/WX TMP DP RH WIND PRES REMARKS AHOSKIE CLOUDY 69 66 88 CALM 30.11S CLINTON CLOUDY 70 69 97 CALM 30.08F ELIZABETHTOWN CLOUDY 70 70 100 CALM 30.06F GOLDSBORO LGT RAIN 72 68 88 E5 30.09S GREENVILLE LGT RAIN 72 70 94 E3 30.13F HAVELOCK CLOUDY 73 70 90 E3 30.11F KENANSVILLE N/A 70 69 95 CALM 30.10F KINSTON CLOUDY 72 70 94 NE5 30.11F NEW BERN LGT RAIN 72 70 93 CALM 30.11F RICHLANDS CLOUDY 72 66 83 CALM 30.09S ROCKY MOUNT CLOUDY 72 66 81 CALM 30.11S WASHINGTON CLOUDY 72 69 90 CALM 30.11S WHITEVILLE CLOUDY 73 71 93 E5 30.05F $$ AMZ130-135-150-152-154-156-158-170-250-252-270-ANZ085-086-088-633-658-670-311000- MARINE OBSERVATIONS STATION/POSITION TIME TEMP WIND PRES WAVE SWELL AIR SEA DIR/SP/G HT/PER HT/PER (UTC) (F) (DEG/KT/KT) (MB) (FT/S) (FT/S) CHESAPEAKE LIGHT 0900 77 230/ 11/ 12 1020.0 64 E VA BEACH 0850 77 78 230/ 6/ 8 1019.4 3/10 3/10 DUCK NOT AVBL 2 E DUCK 0911 79 N/A 2/10 2/11 OREGON INLET NOT AVBL 13E OREGON INLT 0900 78 N/A 4/10 2/11 HATTERAS CG NOT AVBL DIAMOND BUOY 0850 80 83 40/ 4/ 6 1019.6 3/ 9 3/ 9 CAPE LOOKOUT 0900 79 110/ 4/ 5 1019.1 BEAUFORT LAB NOT AVBL 30 SE NEW RVR IN 0808 80 81 90/ 8/ 10 1019.6 30 SE NEW RVR IN 0825 81 N/A 4/10 2/11 27 SE WRIGHTSVLE 0900 77 81 140/ 4/ 6 N/A 5 SE WRIGHTSVLE 0808 80 82 130/ 10/ 14 1018.8 225 S CAPE HAT 0850 83 84 170/ 8/ 10 1019.8 4/ 8 3/ 8 41 SE CHARLESTON 0850 81 84 150/ 19/ 25 1016.1 6/10 5/10 $$

USA.gov is the U.S. government's official web portal to all federal, state and local government web resources and services.